Index of /20260505/WXO-DD/model_caps/3km/12/038
Name Last modified Size Description
Parent Directory -
20260505T12Z_MSC_CAPS_AbsoluteVorticity_IsbL-0250_RLatLon0.03_PT038H.grib2 2026-05-05 18:22 1.0M
20260505T12Z_MSC_CAPS_AbsoluteVorticity_IsbL-0500_RLatLon0.03_PT038H.grib2 2026-05-05 18:22 1.4M
20260505T12Z_MSC_CAPS_AbsoluteVorticity_IsbL-0700_RLatLon0.03_PT038H.grib2 2026-05-05 18:22 1.3M
20260505T12Z_MSC_CAPS_AbsoluteVorticity_IsbL-0850_RLatLon0.03_PT038H.grib2 2026-05-05 18:22 1.3M
20260505T12Z_MSC_CAPS_AbsoluteVorticity_IsbL-1000_RLatLon0.03_PT038H.grib2 2026-05-05 18:22 1.7M
20260505T12Z_MSC_CAPS_AirDensity_AGL-120m_RLatLon0.03_PT038H.grib2 2026-05-05 18:22 1.4M
20260505T12Z_MSC_CAPS_AirDensity_AGL-40m_RLatLon0.03_PT038H.grib2 2026-05-05 18:22 1.4M
20260505T12Z_MSC_CAPS_AirDensity_AGL-80m_RLatLon0.03_PT038H.grib2 2026-05-05 18:22 1.4M
20260505T12Z_MSC_CAPS_AirTemp_AGL-120m_RLatLon0.03_PT038H.grib2 2026-05-05 18:22 1.8M
20260505T12Z_MSC_CAPS_AirTemp_AGL-2m_RLatLon0.03_PT038H.grib2 2026-05-05 18:22 1.7M
20260505T12Z_MSC_CAPS_AirTemp_AGL-40m_RLatLon0.03_PT038H.grib2 2026-05-05 18:22 1.9M
20260505T12Z_MSC_CAPS_AirTemp_AGL-80m_RLatLon0.03_PT038H.grib2 2026-05-05 18:22 1.8M
20260505T12Z_MSC_CAPS_AirTemp_IsbL-0050_RLatLon0.03_PT038H.grib2 2026-05-05 18:22 684K
20260505T12Z_MSC_CAPS_AirTemp_IsbL-0100_RLatLon0.03_PT038H.grib2 2026-05-05 18:22 946K
20260505T12Z_MSC_CAPS_AirTemp_IsbL-0150_RLatLon0.03_PT038H.grib2 2026-05-05 18:22 745K
20260505T12Z_MSC_CAPS_AirTemp_IsbL-0175_RLatLon0.03_PT038H.grib2 2026-05-05 18:22 774K
20260505T12Z_MSC_CAPS_AirTemp_IsbL-0200_RLatLon0.03_PT038H.grib2 2026-05-05 18:22 802K
20260505T12Z_MSC_CAPS_AirTemp_IsbL-0225_RLatLon0.03_PT038H.grib2 2026-05-05 18:22 800K
20260505T12Z_MSC_CAPS_AirTemp_IsbL-0250_RLatLon0.03_PT038H.grib2 2026-05-05 18:22 1.0M
20260505T12Z_MSC_CAPS_AirTemp_IsbL-0275_RLatLon0.03_PT038H.grib2 2026-05-05 18:22 1.0M
20260505T12Z_MSC_CAPS_AirTemp_IsbL-0300_RLatLon0.03_PT038H.grib2 2026-05-05 18:22 1.0M
20260505T12Z_MSC_CAPS_AirTemp_IsbL-0350_RLatLon0.03_PT038H.grib2 2026-05-05 18:22 750K
20260505T12Z_MSC_CAPS_AirTemp_IsbL-0400_RLatLon0.03_PT038H.grib2 2026-05-05 18:22 753K
20260505T12Z_MSC_CAPS_AirTemp_IsbL-0450_RLatLon0.03_PT038H.grib2 2026-05-05 18:22 773K
20260505T12Z_MSC_CAPS_AirTemp_IsbL-0500_RLatLon0.03_PT038H.grib2 2026-05-05 18:22 788K
20260505T12Z_MSC_CAPS_AirTemp_IsbL-0550_RLatLon0.03_PT038H.grib2 2026-05-05 18:22 799K
20260505T12Z_MSC_CAPS_AirTemp_IsbL-0600_RLatLon0.03_PT038H.grib2 2026-05-05 18:22 814K
20260505T12Z_MSC_CAPS_AirTemp_IsbL-0650_RLatLon0.03_PT038H.grib2 2026-05-05 18:22 850K
20260505T12Z_MSC_CAPS_AirTemp_IsbL-0700_RLatLon0.03_PT038H.grib2 2026-05-05 18:22 891K
20260505T12Z_MSC_CAPS_AirTemp_IsbL-0750_RLatLon0.03_PT038H.grib2 2026-05-05 18:22 925K
20260505T12Z_MSC_CAPS_AirTemp_IsbL-0800_RLatLon0.03_PT038H.grib2 2026-05-05 18:22 1.1M
20260505T12Z_MSC_CAPS_AirTemp_IsbL-0850_RLatLon0.03_PT038H.grib2 2026-05-05 18:22 1.1M
20260505T12Z_MSC_CAPS_AirTemp_IsbL-0875_RLatLon0.03_PT038H.grib2 2026-05-05 18:22 1.1M
20260505T12Z_MSC_CAPS_AirTemp_IsbL-0900_RLatLon0.03_PT038H.grib2 2026-05-05 18:22 1.1M
20260505T12Z_MSC_CAPS_AirTemp_IsbL-0925_RLatLon0.03_PT038H.grib2 2026-05-05 18:22 1.1M
20260505T12Z_MSC_CAPS_AirTemp_IsbL-0950_RLatLon0.03_PT038H.grib2 2026-05-05 18:22 1.1M
20260505T12Z_MSC_CAPS_AirTemp_IsbL-0970_RLatLon0.03_PT038H.grib2 2026-05-05 18:22 1.2M
20260505T12Z_MSC_CAPS_AirTemp_IsbL-0985_RLatLon0.03_PT038H.grib2 2026-05-05 18:22 1.1M
20260505T12Z_MSC_CAPS_AirTemp_IsbL-1000_RLatLon0.03_PT038H.grib2 2026-05-05 18:22 1.1M
20260505T12Z_MSC_CAPS_AirTemp_IsbL-1015_RLatLon0.03_PT038H.grib2 2026-05-05 18:22 1.1M
20260505T12Z_MSC_CAPS_Albedo_Sfc_RLatLon0.03_PT038H.grib2 2026-05-05 18:22 2.7M
20260505T12Z_MSC_CAPS_CAPE_Sfc_RLatLon0.03_PT038H.grib2 2026-05-05 18:22 257K
20260505T12Z_MSC_CAPS_CloudWater_EAtm_RLatLon0.03_PT038H.grib2 2026-05-05 18:22 1.5M
20260505T12Z_MSC_CAPS_ConvectivePrecip-Accum_Sfc_RLatLon0.03_PT038H.grib2 2026-05-05 18:22 4.7M
20260505T12Z_MSC_CAPS_DewPointDepression_AGL-120m_RLatLon0.03_PT038H.grib2 2026-05-05 18:22 2.2M
20260505T12Z_MSC_CAPS_DewPointDepression_AGL-2m_RLatLon0.03_PT038H.grib2 2026-05-05 18:22 2.3M
20260505T12Z_MSC_CAPS_DewPointDepression_AGL-40m_RLatLon0.03_PT038H.grib2 2026-05-05 18:22 2.2M
20260505T12Z_MSC_CAPS_DewPointDepression_AGL-80m_RLatLon0.03_PT038H.grib2 2026-05-05 18:22 2.2M
20260505T12Z_MSC_CAPS_DewPointDepression_IsbL-0050_RLatLon0.03_PT038H.grib2 2026-05-05 18:22 1.8K
20260505T12Z_MSC_CAPS_DewPointDepression_IsbL-0100_RLatLon0.03_PT038H.grib2 2026-05-05 18:22 51K
20260505T12Z_MSC_CAPS_DewPointDepression_IsbL-0150_RLatLon0.03_PT038H.grib2 2026-05-05 18:22 45K
20260505T12Z_MSC_CAPS_DewPointDepression_IsbL-0175_RLatLon0.03_PT038H.grib2 2026-05-05 18:22 213K
20260505T12Z_MSC_CAPS_DewPointDepression_IsbL-0200_RLatLon0.03_PT038H.grib2 2026-05-05 18:22 427K
20260505T12Z_MSC_CAPS_DewPointDepression_IsbL-0225_RLatLon0.03_PT038H.grib2 2026-05-05 18:22 609K
20260505T12Z_MSC_CAPS_DewPointDepression_IsbL-0250_RLatLon0.03_PT038H.grib2 2026-05-05 18:22 849K
20260505T12Z_MSC_CAPS_DewPointDepression_IsbL-0275_RLatLon0.03_PT038H.grib2 2026-05-05 18:22 1.0M
20260505T12Z_MSC_CAPS_DewPointDepression_IsbL-0300_RLatLon0.03_PT038H.grib2 2026-05-05 18:22 1.1M
20260505T12Z_MSC_CAPS_DewPointDepression_IsbL-0350_RLatLon0.03_PT038H.grib2 2026-05-05 18:22 1.1M
20260505T12Z_MSC_CAPS_DewPointDepression_IsbL-0400_RLatLon0.03_PT038H.grib2 2026-05-05 18:22 1.1M
20260505T12Z_MSC_CAPS_DewPointDepression_IsbL-0450_RLatLon0.03_PT038H.grib2 2026-05-05 18:22 1.2M
20260505T12Z_MSC_CAPS_DewPointDepression_IsbL-0500_RLatLon0.03_PT038H.grib2 2026-05-05 18:22 1.2M
20260505T12Z_MSC_CAPS_DewPointDepression_IsbL-0550_RLatLon0.03_PT038H.grib2 2026-05-05 18:22 1.2M
20260505T12Z_MSC_CAPS_DewPointDepression_IsbL-0600_RLatLon0.03_PT038H.grib2 2026-05-05 18:22 1.3M
20260505T12Z_MSC_CAPS_DewPointDepression_IsbL-0650_RLatLon0.03_PT038H.grib2 2026-05-05 18:22 1.3M
20260505T12Z_MSC_CAPS_DewPointDepression_IsbL-0700_RLatLon0.03_PT038H.grib2 2026-05-05 18:22 1.3M
20260505T12Z_MSC_CAPS_DewPointDepression_IsbL-0750_RLatLon0.03_PT038H.grib2 2026-05-05 18:22 1.4M
20260505T12Z_MSC_CAPS_DewPointDepression_IsbL-0800_RLatLon0.03_PT038H.grib2 2026-05-05 18:22 1.4M
20260505T12Z_MSC_CAPS_DewPointDepression_IsbL-0850_RLatLon0.03_PT038H.grib2 2026-05-05 18:22 1.4M
20260505T12Z_MSC_CAPS_DewPointDepression_IsbL-0875_RLatLon0.03_PT038H.grib2 2026-05-05 18:22 1.4M
20260505T12Z_MSC_CAPS_DewPointDepression_IsbL-0900_RLatLon0.03_PT038H.grib2 2026-05-05 18:22 1.4M
20260505T12Z_MSC_CAPS_DewPointDepression_IsbL-0925_RLatLon0.03_PT038H.grib2 2026-05-05 18:22 1.4M
20260505T12Z_MSC_CAPS_DewPointDepression_IsbL-0950_RLatLon0.03_PT038H.grib2 2026-05-05 18:22 1.4M
20260505T12Z_MSC_CAPS_DewPointDepression_IsbL-0970_RLatLon0.03_PT038H.grib2 2026-05-05 18:22 1.4M
20260505T12Z_MSC_CAPS_DewPointDepression_IsbL-0985_RLatLon0.03_PT038H.grib2 2026-05-05 18:22 1.4M
20260505T12Z_MSC_CAPS_DewPointDepression_IsbL-1000_RLatLon0.03_PT038H.grib2 2026-05-05 18:22 1.4M
20260505T12Z_MSC_CAPS_DewPointDepression_IsbL-1015_RLatLon0.03_PT038H.grib2 2026-05-05 18:22 1.4M
20260505T12Z_MSC_CAPS_DewPoint_AGL-120m_RLatLon0.03_PT038H.grib2 2026-05-05 18:22 3.8M
20260505T12Z_MSC_CAPS_DewPoint_AGL-2m_RLatLon0.03_PT038H.grib2 2026-05-05 18:22 1.8M
20260505T12Z_MSC_CAPS_DewPoint_AGL-40m_RLatLon0.03_PT038H.grib2 2026-05-05 18:22 3.8M
20260505T12Z_MSC_CAPS_DewPoint_AGL-80m_RLatLon0.03_PT038H.grib2 2026-05-05 18:22 3.8M
20260505T12Z_MSC_CAPS_DownwardLongwaveRadiationFlux-Accum_Sfc_RLatLon0.03_PT038H.grib2 2026-05-05 18:22 2.6M
20260505T12Z_MSC_CAPS_DownwardShortwaveRadiationFlux-Accum_NTAtm_RLatLon0.03_PT038H.grib2 2026-05-05 18:22 392K
20260505T12Z_MSC_CAPS_DownwardShortwaveRadiationFlux-Accum_Sfc_RLatLon0.03_PT038H.grib2 2026-05-05 18:22 3.0M
20260505T12Z_MSC_CAPS_FreezingRain-Accum_Sfc_RLatLon0.03_PT038H.grib2 2026-05-05 18:22 1.0M
20260505T12Z_MSC_CAPS_GeopotentialHeight_IsbL-0050_RLatLon0.03_PT038H.grib2 2026-05-05 18:22 822K
20260505T12Z_MSC_CAPS_GeopotentialHeight_IsbL-0100_RLatLon0.03_PT038H.grib2 2026-05-05 18:22 808K
20260505T12Z_MSC_CAPS_GeopotentialHeight_IsbL-0150_RLatLon0.03_PT038H.grib2 2026-05-05 18:22 603K
20260505T12Z_MSC_CAPS_GeopotentialHeight_IsbL-0175_RLatLon0.03_PT038H.grib2 2026-05-05 18:22 718K
20260505T12Z_MSC_CAPS_GeopotentialHeight_IsbL-0200_RLatLon0.03_PT038H.grib2 2026-05-05 18:22 740K
20260505T12Z_MSC_CAPS_GeopotentialHeight_IsbL-0225_RLatLon0.03_PT038H.grib2 2026-05-05 18:22 755K
20260505T12Z_MSC_CAPS_GeopotentialHeight_IsbL-0250_RLatLon0.03_PT038H.grib2 2026-05-05 18:22 767K
20260505T12Z_MSC_CAPS_GeopotentialHeight_IsbL-0275_RLatLon0.03_PT038H.grib2 2026-05-05 18:22 771K
20260505T12Z_MSC_CAPS_GeopotentialHeight_IsbL-0300_RLatLon0.03_PT038H.grib2 2026-05-05 18:22 776K
20260505T12Z_MSC_CAPS_GeopotentialHeight_IsbL-0350_RLatLon0.03_PT038H.grib2 2026-05-05 18:22 777K
20260505T12Z_MSC_CAPS_GeopotentialHeight_IsbL-0400_RLatLon0.03_PT038H.grib2 2026-05-05 18:22 775K
20260505T12Z_MSC_CAPS_GeopotentialHeight_IsbL-0450_RLatLon0.03_PT038H.grib2 2026-05-05 18:22 768K
20260505T12Z_MSC_CAPS_GeopotentialHeight_IsbL-0500_RLatLon0.03_PT038H.grib2 2026-05-05 18:22 759K
20260505T12Z_MSC_CAPS_GeopotentialHeight_IsbL-0550_RLatLon0.03_PT038H.grib2 2026-05-05 18:22 639K
20260505T12Z_MSC_CAPS_GeopotentialHeight_IsbL-0600_RLatLon0.03_PT038H.grib2 2026-05-05 18:22 634K
20260505T12Z_MSC_CAPS_GeopotentialHeight_IsbL-0650_RLatLon0.03_PT038H.grib2 2026-05-05 18:22 810K
20260505T12Z_MSC_CAPS_GeopotentialHeight_IsbL-0700_RLatLon0.03_PT038H.grib2 2026-05-05 18:22 809K
20260505T12Z_MSC_CAPS_GeopotentialHeight_IsbL-0750_RLatLon0.03_PT038H.grib2 2026-05-05 18:22 810K
20260505T12Z_MSC_CAPS_GeopotentialHeight_IsbL-0800_RLatLon0.03_PT038H.grib2 2026-05-05 18:22 895K
20260505T12Z_MSC_CAPS_GeopotentialHeight_IsbL-0850_RLatLon0.03_PT038H.grib2 2026-05-05 18:22 900K
20260505T12Z_MSC_CAPS_GeopotentialHeight_IsbL-0875_RLatLon0.03_PT038H.grib2 2026-05-05 18:22 904K
20260505T12Z_MSC_CAPS_GeopotentialHeight_IsbL-0900_RLatLon0.03_PT038H.grib2 2026-05-05 18:22 910K
20260505T12Z_MSC_CAPS_GeopotentialHeight_IsbL-0925_RLatLon0.03_PT038H.grib2 2026-05-05 18:22 836K
20260505T12Z_MSC_CAPS_GeopotentialHeight_IsbL-0950_RLatLon0.03_PT038H.grib2 2026-05-05 18:22 839K
20260505T12Z_MSC_CAPS_GeopotentialHeight_IsbL-0970_RLatLon0.03_PT038H.grib2 2026-05-05 18:22 856K
20260505T12Z_MSC_CAPS_GeopotentialHeight_IsbL-0985_RLatLon0.03_PT038H.grib2 2026-05-05 18:22 863K
20260505T12Z_MSC_CAPS_GeopotentialHeight_IsbL-1000_RLatLon0.03_PT038H.grib2 2026-05-05 18:22 874K
20260505T12Z_MSC_CAPS_GeopotentialHeight_IsbL-1015_RLatLon0.03_PT038H.grib2 2026-05-05 18:22 886K
20260505T12Z_MSC_CAPS_GeopotentialHeight_Sfc_RLatLon0.03_PT038H.grib2 2026-05-05 18:22 1.0M
20260505T12Z_MSC_CAPS_IcePellets-Accum_Sfc_RLatLon0.03_PT038H.grib2 2026-05-05 18:22 113K
20260505T12Z_MSC_CAPS_LatentHeatNetFlux_Sfc_RLatLon0.03_PT038H.grib2 2026-05-05 18:22 1.9M
20260505T12Z_MSC_CAPS_LiftedIndex-MU-VT_IsbL-0500_RLatLon0.03_PT038H.grib2 2026-05-05 18:22 3.3M
20260505T12Z_MSC_CAPS_MixedLayerThickness_Sfc_RLatLon0.03_PT038H.nc 2026-05-05 18:13 17M
20260505T12Z_MSC_CAPS_NetLongwaveRadiationFlux-Accum_Sfc_RLatLon0.03_PT038H.grib2 2026-05-05 18:22 2.9M
20260505T12Z_MSC_CAPS_NetShortwaveRadiationFlux-Accum_Sfc_RLatLon0.03_PT038H.grib2 2026-05-05 18:22 2.9M
20260505T12Z_MSC_CAPS_PlanetaryBoundaryLayerHeight_Sfc_RLatLon0.03_PT038H.grib2 2026-05-05 18:22 3.1M
20260505T12Z_MSC_CAPS_Precip-Accum_Sfc_RLatLon0.03_PT038H.grib2 2026-05-05 18:22 5.6M
20260505T12Z_MSC_CAPS_PrecipRate_Sfc_RLatLon0.03_PT038H.grib2 2026-05-05 18:22 476K
20260505T12Z_MSC_CAPS_PrecipType-Instant_Sfc_RLatLon0.03_PT038H.grib2 2026-05-05 18:22 2.0M
20260505T12Z_MSC_CAPS_Pressure_MSL_RLatLon0.03_PT038H.grib2 2026-05-05 18:22 763K
20260505T12Z_MSC_CAPS_Pressure_Sfc_RLatLon0.03_PT038H.grib2 2026-05-05 18:22 1.2M
20260505T12Z_MSC_CAPS_RadiativeTemp_Sfc_RLatLon0.03_PT038H.grib2 2026-05-05 18:22 2.1M
20260505T12Z_MSC_CAPS_Rain-Accum_Sfc_RLatLon0.03_PT038H.grib2 2026-05-05 18:22 3.1M
20260505T12Z_MSC_CAPS_RelativeHumidity_AGL-120m_RLatLon0.03_PT038H.grib2 2026-05-05 18:22 2.9M
20260505T12Z_MSC_CAPS_RelativeHumidity_AGL-2m_RLatLon0.03_PT038H.grib2 2026-05-05 18:22 3.0M
20260505T12Z_MSC_CAPS_RelativeHumidity_AGL-40m_RLatLon0.03_PT038H.grib2 2026-05-05 18:22 3.0M
20260505T12Z_MSC_CAPS_RelativeHumidity_AGL-80m_RLatLon0.03_PT038H.grib2 2026-05-05 18:22 2.9M
20260505T12Z_MSC_CAPS_RelativeHumidity_IsbL-0050_RLatLon0.03_PT038H.grib2 2026-05-05 18:22 1.0M
20260505T12Z_MSC_CAPS_RelativeHumidity_IsbL-0100_RLatLon0.03_PT038H.grib2 2026-05-05 18:22 1.1M
20260505T12Z_MSC_CAPS_RelativeHumidity_IsbL-0150_RLatLon0.03_PT038H.grib2 2026-05-05 18:22 557K
20260505T12Z_MSC_CAPS_RelativeHumidity_IsbL-0175_RLatLon0.03_PT038H.grib2 2026-05-05 18:22 482K
20260505T12Z_MSC_CAPS_RelativeHumidity_IsbL-0200_RLatLon0.03_PT038H.grib2 2026-05-05 18:22 669K
20260505T12Z_MSC_CAPS_RelativeHumidity_IsbL-0225_RLatLon0.03_PT038H.grib2 2026-05-05 18:22 905K
20260505T12Z_MSC_CAPS_RelativeHumidity_IsbL-0250_RLatLon0.03_PT038H.grib2 2026-05-05 18:22 1.1M
20260505T12Z_MSC_CAPS_RelativeHumidity_IsbL-0275_RLatLon0.03_PT038H.grib2 2026-05-05 18:22 1.4M
20260505T12Z_MSC_CAPS_RelativeHumidity_IsbL-0300_RLatLon0.03_PT038H.grib2 2026-05-05 18:22 1.7M
20260505T12Z_MSC_CAPS_RelativeHumidity_IsbL-0350_RLatLon0.03_PT038H.grib2 2026-05-05 18:22 2.0M
20260505T12Z_MSC_CAPS_RelativeHumidity_IsbL-0400_RLatLon0.03_PT038H.grib2 2026-05-05 18:22 2.1M
20260505T12Z_MSC_CAPS_RelativeHumidity_IsbL-0450_RLatLon0.03_PT038H.grib2 2026-05-05 18:22 2.0M
20260505T12Z_MSC_CAPS_RelativeHumidity_IsbL-0500_RLatLon0.03_PT038H.grib2 2026-05-05 18:22 2.2M
20260505T12Z_MSC_CAPS_RelativeHumidity_IsbL-0550_RLatLon0.03_PT038H.grib2 2026-05-05 18:22 2.1M
20260505T12Z_MSC_CAPS_RelativeHumidity_IsbL-0600_RLatLon0.03_PT038H.grib2 2026-05-05 18:22 2.1M
20260505T12Z_MSC_CAPS_RelativeHumidity_IsbL-0650_RLatLon0.03_PT038H.grib2 2026-05-05 18:22 2.3M
20260505T12Z_MSC_CAPS_RelativeHumidity_IsbL-0700_RLatLon0.03_PT038H.grib2 2026-05-05 18:22 2.3M
20260505T12Z_MSC_CAPS_RelativeHumidity_IsbL-0750_RLatLon0.03_PT038H.grib2 2026-05-05 18:22 2.4M
20260505T12Z_MSC_CAPS_RelativeHumidity_IsbL-0800_RLatLon0.03_PT038H.grib2 2026-05-05 18:22 2.5M
20260505T12Z_MSC_CAPS_RelativeHumidity_IsbL-0850_RLatLon0.03_PT038H.grib2 2026-05-05 18:22 2.7M
20260505T12Z_MSC_CAPS_RelativeHumidity_IsbL-0875_RLatLon0.03_PT038H.grib2 2026-05-05 18:22 2.7M
20260505T12Z_MSC_CAPS_RelativeHumidity_IsbL-0900_RLatLon0.03_PT038H.grib2 2026-05-05 18:22 2.8M
20260505T12Z_MSC_CAPS_RelativeHumidity_IsbL-0925_RLatLon0.03_PT038H.grib2 2026-05-05 18:22 2.8M
20260505T12Z_MSC_CAPS_RelativeHumidity_IsbL-0950_RLatLon0.03_PT038H.grib2 2026-05-05 18:22 2.9M
20260505T12Z_MSC_CAPS_RelativeHumidity_IsbL-0970_RLatLon0.03_PT038H.grib2 2026-05-05 18:22 2.9M
20260505T12Z_MSC_CAPS_RelativeHumidity_IsbL-0985_RLatLon0.03_PT038H.grib2 2026-05-05 18:22 3.0M
20260505T12Z_MSC_CAPS_RelativeHumidity_IsbL-1000_RLatLon0.03_PT038H.grib2 2026-05-05 18:22 3.0M
20260505T12Z_MSC_CAPS_RelativeHumidity_IsbL-1015_RLatLon0.03_PT038H.grib2 2026-05-05 18:22 3.0M
20260505T12Z_MSC_CAPS_Runoff-Accum_Sfc_RLatLon0.03_PT038H.grib2 2026-05-05 18:22 324K
20260505T12Z_MSC_CAPS_SeaIceAreaFraction_Sfc_RLatLon0.03_PT038H.nc 2026-05-05 18:13 15M
20260505T12Z_MSC_CAPS_SeaIceCompressiveStrength_Sfc_RLatLon0.03_PT038H.nc 2026-05-05 18:13 15M
20260505T12Z_MSC_CAPS_SeaIceDivergence_Sfc_RLatLon0.03_PT038H.nc 2026-05-05 18:13 14M
20260505T12Z_MSC_CAPS_SeaIceInternalPressure_Sfc_RLatLon0.03_PT038H.nc 2026-05-05 18:13 15M
20260505T12Z_MSC_CAPS_SeaIceShear_Sfc_RLatLon0.03_PT038H.nc 2026-05-05 18:13 14M
20260505T12Z_MSC_CAPS_SeaIceSnowTemp_Sfc_RLatLon0.03_PT038H.nc 2026-05-05 18:13 14M
20260505T12Z_MSC_CAPS_SeaIceSnowVolume_Sfc_RLatLon0.03_PT038H.nc 2026-05-05 18:13 15M
20260505T12Z_MSC_CAPS_SeaIceVelocityX_Sfc_RLatLon0.03_PT038H.nc 2026-05-05 18:13 15M
20260505T12Z_MSC_CAPS_SeaIceVelocityY_Sfc_RLatLon0.03_PT038H.nc 2026-05-05 18:13 15M
20260505T12Z_MSC_CAPS_SeaIceVolume_Sfc_RLatLon0.03_PT038H.nc 2026-05-05 18:13 15M
20260505T12Z_MSC_CAPS_SeaSurfaceHeight_Sfc_RLatLon0.03_PT038H.nc 2026-05-05 18:13 16M
20260505T12Z_MSC_CAPS_SeaWaterSalinity_DBS-0.5m_RLatLon0.03_PT038H.nc 2026-05-05 18:13 16M
20260505T12Z_MSC_CAPS_SeaWaterSalinity_DBS-all_RLatLon0.03_PT038H.nc 2026-05-05 18:13 107M
20260505T12Z_MSC_CAPS_SeaWaterTemp_DBS-0.5m_RLatLon0.03_PT038H.nc 2026-05-05 18:13 15M
20260505T12Z_MSC_CAPS_SeaWaterTemp_DBS-all_RLatLon0.03_PT038H.nc 2026-05-05 18:13 88M
20260505T12Z_MSC_CAPS_SeaWaterVelocityX_DBS-0.5m_RLatLon0.03_PT038H.nc 2026-05-05 18:13 17M
20260505T12Z_MSC_CAPS_SeaWaterVelocityX_DBS-all_RLatLon0.03_PT038H.nc 2026-05-05 18:13 210M
20260505T12Z_MSC_CAPS_SeaWaterVelocityY_DBS-0.5m_RLatLon0.03_PT038H.nc 2026-05-05 18:13 17M
20260505T12Z_MSC_CAPS_SeaWaterVelocityY_DBS-all_RLatLon0.03_PT038H.nc 2026-05-05 18:13 216M
20260505T12Z_MSC_CAPS_SensibleHeatNetFlux_Sfc_RLatLon0.03_PT038H.grib2 2026-05-05 18:22 2.1M
20260505T12Z_MSC_CAPS_ShowalterIndex_IsbL-0500_RLatLon0.03_PT038H.grib2 2026-05-05 18:22 4.3M
20260505T12Z_MSC_CAPS_Snow-Accum_Sfc_RLatLon0.03_PT038H.grib2 2026-05-05 18:22 4.4M
20260505T12Z_MSC_CAPS_SnowDensity_Sfc_RLatLon0.03_PT038H.grib2 2026-05-05 18:22 1.3M
20260505T12Z_MSC_CAPS_SnowDepthWaterEquivalent_Sfc_RLatLon0.03_PT038H.grib2 2026-05-05 18:22 651K
20260505T12Z_MSC_CAPS_SnowDepth_Sfc_RLatLon0.03_PT038H.grib2 2026-05-05 18:22 1.1M
20260505T12Z_MSC_CAPS_SoilTemp_DBS-0to10cm_RLatLon0.03_PT038H.grib2 2026-05-05 18:22 1.7M
20260505T12Z_MSC_CAPS_SoilTemp_Sfc_RLatLon0.03_PT038H.grib2 2026-05-05 18:22 1.8M
20260505T12Z_MSC_CAPS_SoilVolumetricIceContent_Sfc_RLatLon0.03_PT038H.grib2 2026-05-05 18:22 1.4M
20260505T12Z_MSC_CAPS_SoilVolumetricWaterContent_DBS-0to10cm_RLatLon0.03_PT038H.grib2 2026-05-05 18:22 1.3M
20260505T12Z_MSC_CAPS_SoilVolumetricWaterContent_DBS-0to1cm_RLatLon0.03_PT038H.grib2 2026-05-05 18:22 1.8M
20260505T12Z_MSC_CAPS_SpecificHumidity_AGL-120m_RLatLon0.03_PT038H.grib2 2026-05-05 18:22 1.9M
20260505T12Z_MSC_CAPS_SpecificHumidity_AGL-2m_RLatLon0.03_PT038H.grib2 2026-05-05 18:22 1.8M
20260505T12Z_MSC_CAPS_SpecificHumidity_AGL-40m_RLatLon0.03_PT038H.grib2 2026-05-05 18:22 2.0M
20260505T12Z_MSC_CAPS_SpecificHumidity_AGL-80m_RLatLon0.03_PT038H.grib2 2026-05-05 18:22 1.9M
20260505T12Z_MSC_CAPS_SpecificHumidity_IsbL-0050_RLatLon0.03_PT038H.grib2 2026-05-05 18:22 935K
20260505T12Z_MSC_CAPS_SpecificHumidity_IsbL-0100_RLatLon0.03_PT038H.grib2 2026-05-05 18:22 1.0M
20260505T12Z_MSC_CAPS_SpecificHumidity_IsbL-0150_RLatLon0.03_PT038H.grib2 2026-05-05 18:22 781K
20260505T12Z_MSC_CAPS_SpecificHumidity_IsbL-0175_RLatLon0.03_PT038H.grib2 2026-05-05 18:22 1.0M
20260505T12Z_MSC_CAPS_SpecificHumidity_IsbL-0200_RLatLon0.03_PT038H.grib2 2026-05-05 18:22 904K
20260505T12Z_MSC_CAPS_SpecificHumidity_IsbL-0225_RLatLon0.03_PT038H.grib2 2026-05-05 18:22 1.1M
20260505T12Z_MSC_CAPS_SpecificHumidity_IsbL-0250_RLatLon0.03_PT038H.grib2 2026-05-05 18:22 1.1M
20260505T12Z_MSC_CAPS_SpecificHumidity_IsbL-0275_RLatLon0.03_PT038H.grib2 2026-05-05 18:22 1.1M
20260505T12Z_MSC_CAPS_SpecificHumidity_IsbL-0300_RLatLon0.03_PT038H.grib2 2026-05-05 18:22 1.1M
20260505T12Z_MSC_CAPS_SpecificHumidity_IsbL-0350_RLatLon0.03_PT038H.grib2 2026-05-05 18:22 1.0M
20260505T12Z_MSC_CAPS_SpecificHumidity_IsbL-0400_RLatLon0.03_PT038H.grib2 2026-05-05 18:22 1.3M
20260505T12Z_MSC_CAPS_SpecificHumidity_IsbL-0450_RLatLon0.03_PT038H.grib2 2026-05-05 18:22 1.1M
20260505T12Z_MSC_CAPS_SpecificHumidity_IsbL-0500_RLatLon0.03_PT038H.grib2 2026-05-05 18:22 1.1M
20260505T12Z_MSC_CAPS_SpecificHumidity_IsbL-0550_RLatLon0.03_PT038H.grib2 2026-05-05 18:22 1.3M
20260505T12Z_MSC_CAPS_SpecificHumidity_IsbL-0600_RLatLon0.03_PT038H.grib2 2026-05-05 18:22 1.4M
20260505T12Z_MSC_CAPS_SpecificHumidity_IsbL-0650_RLatLon0.03_PT038H.grib2 2026-05-05 18:22 1.5M
20260505T12Z_MSC_CAPS_SpecificHumidity_IsbL-0700_RLatLon0.03_PT038H.grib2 2026-05-05 18:22 1.7M
20260505T12Z_MSC_CAPS_SpecificHumidity_IsbL-0750_RLatLon0.03_PT038H.grib2 2026-05-05 18:22 1.5M
20260505T12Z_MSC_CAPS_SpecificHumidity_IsbL-0800_RLatLon0.03_PT038H.grib2 2026-05-05 18:22 1.6M
20260505T12Z_MSC_CAPS_SpecificHumidity_IsbL-0850_RLatLon0.03_PT038H.grib2 2026-05-05 18:22 1.8M
20260505T12Z_MSC_CAPS_SpecificHumidity_IsbL-0875_RLatLon0.03_PT038H.grib2 2026-05-05 18:22 1.9M
20260505T12Z_MSC_CAPS_SpecificHumidity_IsbL-0900_RLatLon0.03_PT038H.grib2 2026-05-05 18:22 2.0M
20260505T12Z_MSC_CAPS_SpecificHumidity_IsbL-0925_RLatLon0.03_PT038H.grib2 2026-05-05 18:22 1.6M
20260505T12Z_MSC_CAPS_SpecificHumidity_IsbL-0950_RLatLon0.03_PT038H.grib2 2026-05-05 18:22 1.7M
20260505T12Z_MSC_CAPS_SpecificHumidity_IsbL-0970_RLatLon0.03_PT038H.grib2 2026-05-05 18:22 1.7M
20260505T12Z_MSC_CAPS_SpecificHumidity_IsbL-0985_RLatLon0.03_PT038H.grib2 2026-05-05 18:22 1.8M
20260505T12Z_MSC_CAPS_SpecificHumidity_IsbL-1000_RLatLon0.03_PT038H.grib2 2026-05-05 18:22 1.8M
20260505T12Z_MSC_CAPS_SpecificHumidity_IsbL-1015_RLatLon0.03_PT038H.grib2 2026-05-05 18:22 1.8M
20260505T12Z_MSC_CAPS_SpecificHumidity_Sfc_RLatLon0.03_PT038H.grib2 2026-05-05 18:22 2.1M
20260505T12Z_MSC_CAPS_StormRelativeHelicity_Sfc_RLatLon0.03_PT038H.grib2 2026-05-05 18:22 3.2M
20260505T12Z_MSC_CAPS_Thickness_IsbL-1000to0500_RLatLon0.03_PT038H.grib2 2026-05-05 18:22 414K
20260505T12Z_MSC_CAPS_TotalCloudCover_Sfc_RLatLon0.03_PT038H.grib2 2026-05-05 18:22 3.9M
20260505T12Z_MSC_CAPS_TurboclineDepth_Sfc_RLatLon0.03_PT038H.nc 2026-05-05 18:13 16M
20260505T12Z_MSC_CAPS_UpwardLongwaveRadiationFlux_NTAtm_RLatLon0.03_PT038H.grib2 2026-05-05 18:22 3.0M
20260505T12Z_MSC_CAPS_UpwardShortwaveRadiationFlux_NTAtm_RLatLon0.03_PT038H.grib2 2026-05-05 18:22 2.1M
20260505T12Z_MSC_CAPS_VerticalVelocity_IsbL-0250_RLatLon0.03_PT038H.grib2 2026-05-05 18:22 915K
20260505T12Z_MSC_CAPS_VerticalVelocity_IsbL-0500_RLatLon0.03_PT038H.grib2 2026-05-05 18:22 895K
20260505T12Z_MSC_CAPS_VerticalVelocity_IsbL-0700_RLatLon0.03_PT038H.grib2 2026-05-05 18:22 972K
20260505T12Z_MSC_CAPS_VerticalVelocity_IsbL-0850_RLatLon0.03_PT038H.grib2 2026-05-05 18:22 1.1M
20260505T12Z_MSC_CAPS_VerticalVelocity_IsbL-1000_RLatLon0.03_PT038H.grib2 2026-05-05 18:22 1.4M
20260505T12Z_MSC_CAPS_WindDir_AGL-10m_RLatLon0.03_PT038H.grib2 2026-05-05 18:22 2.4M
20260505T12Z_MSC_CAPS_WindDir_AGL-120m_RLatLon0.03_PT038H.grib2 2026-05-05 18:22 1.2M
20260505T12Z_MSC_CAPS_WindDir_AGL-40m_RLatLon0.03_PT038H.grib2 2026-05-05 18:22 1.3M
20260505T12Z_MSC_CAPS_WindDir_AGL-80m_RLatLon0.03_PT038H.grib2 2026-05-05 18:22 1.3M
20260505T12Z_MSC_CAPS_WindDir_IsbL-0050_RLatLon0.03_PT038H.grib2 2026-05-05 18:22 1.1M
20260505T12Z_MSC_CAPS_WindDir_IsbL-0100_RLatLon0.03_PT038H.grib2 2026-05-05 18:22 1.0M
20260505T12Z_MSC_CAPS_WindDir_IsbL-0150_RLatLon0.03_PT038H.grib2 2026-05-05 18:22 1.0M
20260505T12Z_MSC_CAPS_WindDir_IsbL-0175_RLatLon0.03_PT038H.grib2 2026-05-05 18:22 1.0M
20260505T12Z_MSC_CAPS_WindDir_IsbL-0200_RLatLon0.03_PT038H.grib2 2026-05-05 18:22 1.2M
20260505T12Z_MSC_CAPS_WindDir_IsbL-0225_RLatLon0.03_PT038H.grib2 2026-05-05 18:22 1.1M
20260505T12Z_MSC_CAPS_WindDir_IsbL-0250_RLatLon0.03_PT038H.grib2 2026-05-05 18:22 1.1M
20260505T12Z_MSC_CAPS_WindDir_IsbL-0275_RLatLon0.03_PT038H.grib2 2026-05-05 18:22 1.1M
20260505T12Z_MSC_CAPS_WindDir_IsbL-0300_RLatLon0.03_PT038H.grib2 2026-05-05 18:22 1.1M
20260505T12Z_MSC_CAPS_WindDir_IsbL-0350_RLatLon0.03_PT038H.grib2 2026-05-05 18:22 1.1M
20260505T12Z_MSC_CAPS_WindDir_IsbL-0400_RLatLon0.03_PT038H.grib2 2026-05-05 18:22 1.2M
20260505T12Z_MSC_CAPS_WindDir_IsbL-0450_RLatLon0.03_PT038H.grib2 2026-05-05 18:22 1.2M
20260505T12Z_MSC_CAPS_WindDir_IsbL-0500_RLatLon0.03_PT038H.grib2 2026-05-05 18:22 1.3M
20260505T12Z_MSC_CAPS_WindDir_IsbL-0550_RLatLon0.03_PT038H.grib2 2026-05-05 18:22 1.2M
20260505T12Z_MSC_CAPS_WindDir_IsbL-0600_RLatLon0.03_PT038H.grib2 2026-05-05 18:22 1.3M
20260505T12Z_MSC_CAPS_WindDir_IsbL-0650_RLatLon0.03_PT038H.grib2 2026-05-05 18:22 1.4M
20260505T12Z_MSC_CAPS_WindDir_IsbL-0700_RLatLon0.03_PT038H.grib2 2026-05-05 18:22 1.5M
20260505T12Z_MSC_CAPS_WindDir_IsbL-0750_RLatLon0.03_PT038H.grib2 2026-05-05 18:22 1.6M
20260505T12Z_MSC_CAPS_WindDir_IsbL-0800_RLatLon0.03_PT038H.grib2 2026-05-05 18:22 1.7M
20260505T12Z_MSC_CAPS_WindDir_IsbL-0850_RLatLon0.03_PT038H.grib2 2026-05-05 18:22 1.8M
20260505T12Z_MSC_CAPS_WindDir_IsbL-0875_RLatLon0.03_PT038H.grib2 2026-05-05 18:22 1.9M
20260505T12Z_MSC_CAPS_WindDir_IsbL-0900_RLatLon0.03_PT038H.grib2 2026-05-05 18:22 1.9M
20260505T12Z_MSC_CAPS_WindDir_IsbL-0925_RLatLon0.03_PT038H.grib2 2026-05-05 18:22 2.0M
20260505T12Z_MSC_CAPS_WindDir_IsbL-0950_RLatLon0.03_PT038H.grib2 2026-05-05 18:22 2.0M
20260505T12Z_MSC_CAPS_WindDir_IsbL-0970_RLatLon0.03_PT038H.grib2 2026-05-05 18:22 2.1M
20260505T12Z_MSC_CAPS_WindDir_IsbL-0985_RLatLon0.03_PT038H.grib2 2026-05-05 18:22 2.2M
20260505T12Z_MSC_CAPS_WindDir_IsbL-1000_RLatLon0.03_PT038H.grib2 2026-05-05 18:22 2.3M
20260505T12Z_MSC_CAPS_WindDir_IsbL-1015_RLatLon0.03_PT038H.grib2 2026-05-05 18:22 2.3M
20260505T12Z_MSC_CAPS_WindGust-Max_AGL-10m_RLatLon0.03_PT038H.grib2 2026-05-05 18:22 2.5M
20260505T12Z_MSC_CAPS_WindGust-Min_AGL-10m_RLatLon0.03_PT038H.grib2 2026-05-05 18:22 2.5M
20260505T12Z_MSC_CAPS_WindGust_AGL-10m_RLatLon0.03_PT038H.grib2 2026-05-05 18:22 2.5M
20260505T12Z_MSC_CAPS_WindSpeed_AGL-10m_RLatLon0.03_PT038H.grib2 2026-05-05 18:22 2.1M
20260505T12Z_MSC_CAPS_WindSpeed_AGL-120m_RLatLon0.03_PT038H.grib2 2026-05-05 18:22 1.1M
20260505T12Z_MSC_CAPS_WindSpeed_AGL-40m_RLatLon0.03_PT038H.grib2 2026-05-05 18:22 1.2M
20260505T12Z_MSC_CAPS_WindSpeed_AGL-80m_RLatLon0.03_PT038H.grib2 2026-05-05 18:22 1.1M
20260505T12Z_MSC_CAPS_WindSpeed_IsbL-0050_RLatLon0.03_PT038H.grib2 2026-05-05 18:22 952K
20260505T12Z_MSC_CAPS_WindSpeed_IsbL-0100_RLatLon0.03_PT038H.grib2 2026-05-05 18:22 1.3M
20260505T12Z_MSC_CAPS_WindSpeed_IsbL-0150_RLatLon0.03_PT038H.grib2 2026-05-05 18:22 1.0M
20260505T12Z_MSC_CAPS_WindSpeed_IsbL-0175_RLatLon0.03_PT038H.grib2 2026-05-05 18:22 1.1M
20260505T12Z_MSC_CAPS_WindSpeed_IsbL-0200_RLatLon0.03_PT038H.grib2 2026-05-05 18:22 1.2M
20260505T12Z_MSC_CAPS_WindSpeed_IsbL-0225_RLatLon0.03_PT038H.grib2 2026-05-05 18:22 959K
20260505T12Z_MSC_CAPS_WindSpeed_IsbL-0250_RLatLon0.03_PT038H.grib2 2026-05-05 18:22 1.0M
20260505T12Z_MSC_CAPS_WindSpeed_IsbL-0275_RLatLon0.03_PT038H.grib2 2026-05-05 18:22 1.0M
20260505T12Z_MSC_CAPS_WindSpeed_IsbL-0300_RLatLon0.03_PT038H.grib2 2026-05-05 18:22 1.0M
20260505T12Z_MSC_CAPS_WindSpeed_IsbL-0350_RLatLon0.03_PT038H.grib2 2026-05-05 18:22 1.0M
20260505T12Z_MSC_CAPS_WindSpeed_IsbL-0400_RLatLon0.03_PT038H.grib2 2026-05-05 18:22 1.0M
20260505T12Z_MSC_CAPS_WindSpeed_IsbL-0450_RLatLon0.03_PT038H.grib2 2026-05-05 18:22 1.3M
20260505T12Z_MSC_CAPS_WindSpeed_IsbL-0500_RLatLon0.03_PT038H.grib2 2026-05-05 18:22 1.4M
20260505T12Z_MSC_CAPS_WindSpeed_IsbL-0550_RLatLon0.03_PT038H.grib2 2026-05-05 18:22 1.4M
20260505T12Z_MSC_CAPS_WindSpeed_IsbL-0600_RLatLon0.03_PT038H.grib2 2026-05-05 18:22 1.4M
20260505T12Z_MSC_CAPS_WindSpeed_IsbL-0650_RLatLon0.03_PT038H.grib2 2026-05-05 18:22 1.5M
20260505T12Z_MSC_CAPS_WindSpeed_IsbL-0700_RLatLon0.03_PT038H.grib2 2026-05-05 18:22 1.5M
20260505T12Z_MSC_CAPS_WindSpeed_IsbL-0750_RLatLon0.03_PT038H.grib2 2026-05-05 18:22 1.6M
20260505T12Z_MSC_CAPS_WindSpeed_IsbL-0800_RLatLon0.03_PT038H.grib2 2026-05-05 18:22 1.7M
20260505T12Z_MSC_CAPS_WindSpeed_IsbL-0850_RLatLon0.03_PT038H.grib2 2026-05-05 18:22 1.8M
20260505T12Z_MSC_CAPS_WindSpeed_IsbL-0875_RLatLon0.03_PT038H.grib2 2026-05-05 18:22 1.8M
20260505T12Z_MSC_CAPS_WindSpeed_IsbL-0900_RLatLon0.03_PT038H.grib2 2026-05-05 18:22 1.9M
20260505T12Z_MSC_CAPS_WindSpeed_IsbL-0925_RLatLon0.03_PT038H.grib2 2026-05-05 18:22 1.9M
20260505T12Z_MSC_CAPS_WindSpeed_IsbL-0950_RLatLon0.03_PT038H.grib2 2026-05-05 18:22 2.0M
20260505T12Z_MSC_CAPS_WindSpeed_IsbL-0970_RLatLon0.03_PT038H.grib2 2026-05-05 18:22 2.0M
20260505T12Z_MSC_CAPS_WindSpeed_IsbL-0985_RLatLon0.03_PT038H.grib2 2026-05-05 18:22 2.0M
20260505T12Z_MSC_CAPS_WindSpeed_IsbL-1000_RLatLon0.03_PT038H.grib2 2026-05-05 18:22 2.1M
20260505T12Z_MSC_CAPS_WindSpeed_IsbL-1015_RLatLon0.03_PT038H.grib2 2026-05-05 18:22 2.1M
20260505T12Z_MSC_CAPS_WindU_AGL-10m_RLatLon0.03_PT038H.grib2 2026-05-05 18:22 1.9M
20260505T12Z_MSC_CAPS_WindU_AGL-120m_RLatLon0.03_PT038H.grib2 2026-05-05 18:22 894K
20260505T12Z_MSC_CAPS_WindU_AGL-40m_RLatLon0.03_PT038H.grib2 2026-05-05 18:22 1.2M
20260505T12Z_MSC_CAPS_WindU_AGL-80m_RLatLon0.03_PT038H.grib2 2026-05-05 18:22 1.2M
20260505T12Z_MSC_CAPS_WindU_IsbL-0050_RLatLon0.03_PT038H.grib2 2026-05-05 18:22 939K
20260505T12Z_MSC_CAPS_WindU_IsbL-0100_RLatLon0.03_PT038H.grib2 2026-05-05 18:22 957K
20260505T12Z_MSC_CAPS_WindU_IsbL-0150_RLatLon0.03_PT038H.grib2 2026-05-05 18:22 918K
20260505T12Z_MSC_CAPS_WindU_IsbL-0175_RLatLon0.03_PT038H.grib2 2026-05-05 18:22 732K
20260505T12Z_MSC_CAPS_WindU_IsbL-0200_RLatLon0.03_PT038H.grib2 2026-05-05 18:22 883K
20260505T12Z_MSC_CAPS_WindU_IsbL-0225_RLatLon0.03_PT038H.grib2 2026-05-05 18:22 899K
20260505T12Z_MSC_CAPS_WindU_IsbL-0250_RLatLon0.03_PT038H.grib2 2026-05-05 18:22 916K
20260505T12Z_MSC_CAPS_WindU_IsbL-0275_RLatLon0.03_PT038H.grib2 2026-05-05 18:22 920K
20260505T12Z_MSC_CAPS_WindU_IsbL-0300_RLatLon0.03_PT038H.grib2 2026-05-05 18:22 927K
20260505T12Z_MSC_CAPS_WindU_IsbL-0350_RLatLon0.03_PT038H.grib2 2026-05-05 18:22 943K
20260505T12Z_MSC_CAPS_WindU_IsbL-0400_RLatLon0.03_PT038H.grib2 2026-05-05 18:22 953K
20260505T12Z_MSC_CAPS_WindU_IsbL-0450_RLatLon0.03_PT038H.grib2 2026-05-05 18:22 971K
20260505T12Z_MSC_CAPS_WindU_IsbL-0500_RLatLon0.03_PT038H.grib2 2026-05-05 18:22 1.0M
20260505T12Z_MSC_CAPS_WindU_IsbL-0550_RLatLon0.03_PT038H.grib2 2026-05-05 18:22 909K
20260505T12Z_MSC_CAPS_WindU_IsbL-0600_RLatLon0.03_PT038H.grib2 2026-05-05 18:22 939K
20260505T12Z_MSC_CAPS_WindU_IsbL-0650_RLatLon0.03_PT038H.grib2 2026-05-05 18:22 1.0M
20260505T12Z_MSC_CAPS_WindU_IsbL-0700_RLatLon0.03_PT038H.grib2 2026-05-05 18:22 1.0M
20260505T12Z_MSC_CAPS_WindU_IsbL-0750_RLatLon0.03_PT038H.grib2 2026-05-05 18:22 1.1M
20260505T12Z_MSC_CAPS_WindU_IsbL-0800_RLatLon0.03_PT038H.grib2 2026-05-05 18:22 1.1M
20260505T12Z_MSC_CAPS_WindU_IsbL-0850_RLatLon0.03_PT038H.grib2 2026-05-05 18:22 1.2M
20260505T12Z_MSC_CAPS_WindU_IsbL-0875_RLatLon0.03_PT038H.grib2 2026-05-05 18:22 1.3M
20260505T12Z_MSC_CAPS_WindU_IsbL-0900_RLatLon0.03_PT038H.grib2 2026-05-05 18:22 1.3M
20260505T12Z_MSC_CAPS_WindU_IsbL-0925_RLatLon0.03_PT038H.grib2 2026-05-05 18:22 1.3M
20260505T12Z_MSC_CAPS_WindU_IsbL-0950_RLatLon0.03_PT038H.grib2 2026-05-05 18:22 1.4M
20260505T12Z_MSC_CAPS_WindU_IsbL-0970_RLatLon0.03_PT038H.grib2 2026-05-05 18:22 1.4M
20260505T12Z_MSC_CAPS_WindU_IsbL-0985_RLatLon0.03_PT038H.grib2 2026-05-05 18:22 1.4M
20260505T12Z_MSC_CAPS_WindU_IsbL-1000_RLatLon0.03_PT038H.grib2 2026-05-05 18:22 1.9M
20260505T12Z_MSC_CAPS_WindU_IsbL-1015_RLatLon0.03_PT038H.grib2 2026-05-05 18:22 1.9M
20260505T12Z_MSC_CAPS_WindV_AGL-10m_RLatLon0.03_PT038H.grib2 2026-05-05 18:22 2.0M
20260505T12Z_MSC_CAPS_WindV_AGL-120m_RLatLon0.03_PT038H.grib2 2026-05-05 18:22 1.2M
20260505T12Z_MSC_CAPS_WindV_AGL-40m_RLatLon0.03_PT038H.grib2 2026-05-05 18:22 1.2M
20260505T12Z_MSC_CAPS_WindV_AGL-80m_RLatLon0.03_PT038H.grib2 2026-05-05 18:22 1.2M
20260505T12Z_MSC_CAPS_WindV_IsbL-0050_RLatLon0.03_PT038H.grib2 2026-05-05 18:22 765K
20260505T12Z_MSC_CAPS_WindV_IsbL-0100_RLatLon0.03_PT038H.grib2 2026-05-05 18:22 784K
20260505T12Z_MSC_CAPS_WindV_IsbL-0150_RLatLon0.03_PT038H.grib2 2026-05-05 18:22 1.0M
20260505T12Z_MSC_CAPS_WindV_IsbL-0175_RLatLon0.03_PT038H.grib2 2026-05-05 18:22 722K
20260505T12Z_MSC_CAPS_WindV_IsbL-0200_RLatLon0.03_PT038H.grib2 2026-05-05 18:22 873K
20260505T12Z_MSC_CAPS_WindV_IsbL-0225_RLatLon0.03_PT038H.grib2 2026-05-05 18:22 891K
20260505T12Z_MSC_CAPS_WindV_IsbL-0250_RLatLon0.03_PT038H.grib2 2026-05-05 18:22 911K
20260505T12Z_MSC_CAPS_WindV_IsbL-0275_RLatLon0.03_PT038H.grib2 2026-05-05 18:22 916K
20260505T12Z_MSC_CAPS_WindV_IsbL-0300_RLatLon0.03_PT038H.grib2 2026-05-05 18:22 923K
20260505T12Z_MSC_CAPS_WindV_IsbL-0350_RLatLon0.03_PT038H.grib2 2026-05-05 18:22 942K
20260505T12Z_MSC_CAPS_WindV_IsbL-0400_RLatLon0.03_PT038H.grib2 2026-05-05 18:22 948K
20260505T12Z_MSC_CAPS_WindV_IsbL-0450_RLatLon0.03_PT038H.grib2 2026-05-05 18:22 967K
20260505T12Z_MSC_CAPS_WindV_IsbL-0500_RLatLon0.03_PT038H.grib2 2026-05-05 18:22 1.0M
20260505T12Z_MSC_CAPS_WindV_IsbL-0550_RLatLon0.03_PT038H.grib2 2026-05-05 18:22 903K
20260505T12Z_MSC_CAPS_WindV_IsbL-0600_RLatLon0.03_PT038H.grib2 2026-05-05 18:22 933K
20260505T12Z_MSC_CAPS_WindV_IsbL-0650_RLatLon0.03_PT038H.grib2 2026-05-05 18:22 1.2M
20260505T12Z_MSC_CAPS_WindV_IsbL-0700_RLatLon0.03_PT038H.grib2 2026-05-05 18:22 1.0M
20260505T12Z_MSC_CAPS_WindV_IsbL-0750_RLatLon0.03_PT038H.grib2 2026-05-05 18:22 1.1M
20260505T12Z_MSC_CAPS_WindV_IsbL-0800_RLatLon0.03_PT038H.grib2 2026-05-05 18:22 1.1M
20260505T12Z_MSC_CAPS_WindV_IsbL-0850_RLatLon0.03_PT038H.grib2 2026-05-05 18:22 1.2M
20260505T12Z_MSC_CAPS_WindV_IsbL-0875_RLatLon0.03_PT038H.grib2 2026-05-05 18:22 1.2M
20260505T12Z_MSC_CAPS_WindV_IsbL-0900_RLatLon0.03_PT038H.grib2 2026-05-05 18:22 1.3M
20260505T12Z_MSC_CAPS_WindV_IsbL-0925_RLatLon0.03_PT038H.grib2 2026-05-05 18:22 1.3M
20260505T12Z_MSC_CAPS_WindV_IsbL-0950_RLatLon0.03_PT038H.grib2 2026-05-05 18:22 1.4M
20260505T12Z_MSC_CAPS_WindV_IsbL-0970_RLatLon0.03_PT038H.grib2 2026-05-05 18:22 1.4M
20260505T12Z_MSC_CAPS_WindV_IsbL-0985_RLatLon0.03_PT038H.grib2 2026-05-05 18:22 1.4M
20260505T12Z_MSC_CAPS_WindV_IsbL-1000_RLatLon0.03_PT038H.grib2 2026-05-05 18:22 1.9M
20260505T12Z_MSC_CAPS_WindV_IsbL-1015_RLatLon0.03_PT038H.grib2 2026-05-05 18:22 2.0M